Time,TemperatureF,DewpointF,PressureIn,WindDirection,WindDirectionDegrees,WindSpeedMPH,WindSpeedGustMPH,Humidity,HourlyPrecipIn,Conditions,Clouds,dailyrainin,SoftwareType,DateUTC
2013-04-22 00:00:00,50.4,36.6,30.26,N/A,-737280,0.0,0.0,59,0.00,,,0.00,Wunderground v.1.13,2013-04-22 04:00:00,
2013-04-22 00:10:00,50.4,36.6,30.26,N/A,-737280,0.0,0.0,59,0.00,,,0.00,Wunderground v.1.13,2013-04-22 04:10:00,
2013-04-22 00:20:00,50.4,36.6,30.26,N/A,-737280,0.0,0.0,59,0.00,,,0.00,Wunderground v.1.13,2013-04-22 04:20:00,
2013-04-22 00:30:00,50.4,36.6,30.26,N/A,-737280,0.0,0.0,59,0.00,,,0.00,Wunderground v.1.13,2013-04-22 04:30:00,
2013-04-22 00:40:00,50.4,36.6,30.26,N/A,-737280,0.0,0.0,59,0.00,,,0.00,Wunderground v.1.13,2013-04-22 04:40:00,
2013-04-22 00:50:00,50.0,37.1,30.26,N/A,-737280,0.0,0.0,61,0.00,,,0.00,Wunderground v.1.13,2013-04-22 04:50:00,
2013-04-22 01:00:00,50.0,37.1,30.26,N/A,-737280,0.0,0.0,61,0.00,,,0.00,Wunderground v.1.13,2013-04-22 05:00:00,
2013-04-22 01:10:00,50.0,37.1,30.26,N/A,-737280,0.0,0.0,61,0.00,,,0.00,Wunderground v.1.13,2013-04-22 05:10:00,
2013-04-22 01:20:00,49.4,37.7,30.25,N/A,-737280,0.0,0.0,64,0.00,,,0.00,Wunderground v.1.13,2013-04-22 05:20:00,
2013-04-22 01:30:00,49.4,37.7,30.25,N/A,-737280,0.0,0.0,64,0.00,,,0.00,Wunderground v.1.13,2013-04-22 05:30:00,
2013-04-22 01:40:00,49.4,37.7,30.25,N/A,-737280,0.0,0.0,64,0.00,,,0.00,Wunderground v.1.13,2013-04-22 05:40:00,
2013-04-22 01:50:00,48.5,37.7,30.24,N/A,-737280,0.0,0.0,66,0.00,,,0.00,Wunderground v.1.13,2013-04-22 05:50:00,
2013-04-22 02:00:00,48.5,37.7,30.24,N/A,-737280,0.0,0.0,66,0.00,,,0.00,Wunderground v.1.13,2013-04-22 06:00:00,
2013-04-22 02:10:00,48.5,37.7,30.24,N/A,-737280,0.0,0.0,66,0.00,,,0.00,Wunderground v.1.13,2013-04-22 06:10:00,
2013-04-22 02:20:00,47.0,37.4,30.24,N/A,-737280,0.0,0.0,69,0.00,,,0.00,Wunderground v.1.13,2013-04-22 06:20:00,
2013-04-22 02:30:00,47.0,37.4,30.24,N/A,-737280,0.0,0.0,69,0.00,,,0.00,Wunderground v.1.13,2013-04-22 06:30:00,
2013-04-22 02:40:00,47.0,37.4,30.24,N/A,-737280,0.0,0.0,69,0.00,,,0.00,Wunderground v.1.13,2013-04-22 06:40:00,
2013-04-22 02:50:00,45.9,38.8,30.24,N/A,-737280,0.0,0.0,76,0.00,,,0.00,Wunderground v.1.13,2013-04-22 06:50:00,
2013-04-22 03:00:00,45.9,38.8,30.24,N/A,-737280,0.0,0.0,76,0.00,,,0.00,Wunderground v.1.13,2013-04-22 07:00:00,
2013-04-22 03:10:00,45.9,38.8,30.24,N/A,-737280,0.0,0.0,76,0.00,,,0.00,Wunderground v.1.13,2013-04-22 07:10:00,
2013-04-22 03:20:00,45.6,39.5,30.24,N/A,-737280,0.0,0.0,79,0.00,,,0.00,Wunderground v.1.13,2013-04-22 07:20:00,
2013-04-22 03:30:00,45.6,39.5,30.24,N/A,-737280,0.0,0.0,79,0.00,,,0.00,Wunderground v.1.13,2013-04-22 07:30:00,
2013-04-22 03:40:00,45.6,39.5,30.24,N/A,-737280,0.0,0.0,79,0.00,,,0.00,Wunderground v.1.13,2013-04-22 07:40:00,
2013-04-22 03:50:00,45.0,40.5,30.24,N/A,-737280,0.0,0.0,84,0.00,,,0.00,Wunderground v.1.13,2013-04-22 07:50:00,
2013-04-22 04:00:00,45.0,40.5,30.24,N/A,-737280,0.0,0.0,84,0.00,,,0.00,Wunderground v.1.13,2013-04-22 08:00:00,
2013-04-22 04:10:00,45.0,40.5,30.24,N/A,-737280,0.0,0.0,84,0.00,,,0.00,Wunderground v.1.13,2013-04-22 08:10:00,
2013-04-22 04:20:00,44.2,40.3,30.24,N/A,-737280,0.0,0.0,86,0.00,,,0.00,Wunderground v.1.13,2013-04-22 08:20:00,
2013-04-22 04:30:00,44.2,40.3,30.24,N/A,-737280,0.0,0.0,86,0.00,,,0.00,Wunderground v.1.13,2013-04-22 08:30:00,
2013-04-22 04:40:00,44.2,40.3,30.24,N/A,-737280,0.0,0.0,86,0.00,,,0.00,Wunderground v.1.13,2013-04-22 08:40:00,
2013-04-22 04:50:00,43.7,40.1,30.24,N/A,-737280,0.0,0.0,87,0.00,,,0.00,Wunderground v.1.13,2013-04-22 08:50:00,
2013-04-22 05:00:00,43.7,40.1,30.24,N/A,-737280,0.0,0.0,87,0.00,,,0.00,Wunderground v.1.13,2013-04-22 09:00:00,
2013-04-22 05:10:00,43.7,40.1,30.24,N/A,-737280,0.0,0.0,87,0.00,,,0.00,Wunderground v.1.13,2013-04-22 09:10:00,
2013-04-22 05:20:00,43.2,40.2,30.25,N/A,-737280,0.0,0.0,89,0.00,,,0.00,Wunderground v.1.13,2013-04-22 09:20:00,
2013-04-22 05:30:00,43.2,40.2,30.25,N/A,-737280,0.0,0.0,89,0.00,,,0.00,Wunderground v.1.13,2013-04-22 09:30:00,
2013-04-22 05:40:00,43.2,40.2,30.25,N/A,-737280,0.0,0.0,89,0.00,,,0.00,Wunderground v.1.13,2013-04-22 09:40:00,
2013-04-22 05:50:00,42.8,40.4,30.26,N/A,-737280,0.0,0.0,91,0.00,,,0.00,Wunderground v.1.13,2013-04-22 09:50:00,
2013-04-22 06:00:00,42.8,40.4,30.26,N/A,-737280,0.0,0.0,91,0.00,,,0.00,Wunderground v.1.13,2013-04-22 10:00:00,
2013-04-22 06:10:00,42.8,40.4,30.26,N/A,-737280,0.0,0.0,91,0.00,,,0.00,Wunderground v.1.13,2013-04-22 10:10:00,
2013-04-22 06:20:00,42.7,40.5,30.27,N/A,-737280,0.0,0.0,92,0.00,,,0.00,Wunderground v.1.13,2013-04-22 10:20:00,
2013-04-22 06:30:00,42.7,40.5,30.27,N/A,-737280,0.0,0.0,92,0.00,,,0.00,Wunderground v.1.13,2013-04-22 10:30:00,
2013-04-22 06:40:00,42.7,40.5,30.27,N/A,-737280,0.0,0.0,92,0.00,,,0.00,Wunderground v.1.13,2013-04-22 10:40:00,
2013-04-22 06:50:00,43.0,41.7,30.29,N/A,-737280,0.0,0.0,95,0.00,,,0.00,Wunderground v.1.13,2013-04-22 10:50:00,
2013-04-22 07:00:00,43.0,41.7,30.29,N/A,-737280,0.0,0.0,95,0.00,,,0.00,Wunderground v.1.13,2013-04-22 11:00:00,
2013-04-22 07:10:00,43.0,41.7,30.29,N/A,-737280,0.0,0.0,95,0.00,,,0.00,Wunderground v.1.13,2013-04-22 11:10:00,
2013-04-22 07:20:00,43.2,42.1,30.30,N/A,-737280,0.0,0.0,96,0.00,,,0.00,Wunderground v.1.13,2013-04-22 11:20:00,
2013-04-22 07:30:00,43.2,42.1,30.30,N/A,-737280,0.0,0.0,96,0.00,,,0.00,Wunderground v.1.13,2013-04-22 11:30:00,
2013-04-22 07:40:00,43.2,42.1,30.30,N/A,-737280,0.0,0.0,96,0.00,,,0.00,Wunderground v.1.13,2013-04-22 11:40:00,
2013-04-22 07:50:00,44.5,44.0,30.31,N/A,-737280,0.0,0.0,98,0.00,,,0.00,Wunderground v.1.13,2013-04-22 11:50:00,
2013-04-22 08:00:00,44.5,44.0,30.31,N/A,-737280,0.0,0.0,98,0.00,,,0.00,Wunderground v.1.13,2013-04-22 12:00:00,
2013-04-22 08:10:00,44.5,44.0,30.31,N/A,-737280,0.0,0.0,98,0.00,,,0.00,Wunderground v.1.13,2013-04-22 12:10:00,
2013-04-22 08:20:00,46.4,45.3,30.30,ESE,113,0.0,1.0,96,0.00,,,0.00,Wunderground v.1.13,2013-04-22 12:20:00,
2013-04-22 08:30:00,46.4,45.3,30.30,ESE,113,0.0,1.0,96,0.00,,,0.00,Wunderground v.1.13,2013-04-22 12:30:00,
2013-04-22 08:40:00,46.4,45.3,30.30,ESE,113,0.0,1.0,96,0.00,,,0.00,Wunderground v.1.13,2013-04-22 12:40:00,
2013-04-22 08:50:00,49.8,43.5,30.30,ESE,113,0.0,1.0,79,0.00,,,0.00,Wunderground v.1.13,2013-04-22 12:50:00,
2013-04-22 09:00:00,49.8,43.5,30.30,ESE,113,0.0,1.0,79,0.00,,,0.00,Wunderground v.1.13,2013-04-22 13:00:00,
2013-04-22 09:10:00,49.8,43.5,30.30,ESE,113,0.0,1.0,79,0.00,,,0.00,Wunderground v.1.13,2013-04-22 13:10:00,
2013-04-22 09:20:00,53.0,43.1,30.30,ESE,113,0.0,2.0,69,0.00,,,0.00,Wunderground v.1.13,2013-04-22 13:20:00,
2013-04-22 09:30:00,53.0,43.1,30.30,ESE,113,0.0,2.0,69,0.00,,,0.00,Wunderground v.1.13,2013-04-22 13:30:00,
2013-04-22 09:40:00,53.0,43.1,30.30,ESE,113,0.0,2.0,69,0.00,,,0.00,Wunderground v.1.13,2013-04-22 13:40:00,
2013-04-22 09:50:00,55.9,42.6,30.29,ESE,113,0.0,2.0,61,0.00,,,0.00,Wunderground v.1.13,2013-04-22 13:50:00,
2013-04-22 10:00:00,55.9,42.6,30.29,ESE,113,0.0,2.0,61,0.00,,,0.00,Wunderground v.1.13,2013-04-22 14:00:00,
2013-04-22 10:10:00,55.9,42.6,30.29,ESE,113,0.0,2.0,61,0.00,,,0.00,Wunderground v.1.13,2013-04-22 14:10:00,
2013-04-22 10:20:00,58.6,41.5,30.28,ESE,113,0.0,1.0,53,0.00,,,0.00,Wunderground v.1.13,2013-04-22 14:20:00,
2013-04-22 10:30:00,58.6,41.5,30.28,ESE,113,0.0,1.0,53,0.00,,,0.00,Wunderground v.1.13,2013-04-22 14:30:00,
2013-04-22 10:40:00,58.6,41.5,30.28,ESE,113,0.0,1.0,53,0.00,,,0.00,Wunderground v.1.13,2013-04-22 14:40:00,
2013-04-22 10:50:00,59.7,38.9,30.27,NE,45,0.0,3.0,46,0.00,,,0.00,Wunderground v.1.13,2013-04-22 14:50:00,
2013-04-22 11:00:00,59.7,38.9,30.27,NE,45,0.0,3.0,46,0.00,,,0.00,Wunderground v.1.13,2013-04-22 15:00:00,
2013-04-22 11:10:00,59.7,38.9,30.27,NE,45,0.0,3.0,46,0.00,,,0.00,Wunderground v.1.13,2013-04-22 15:10:00,
2013-04-22 11:20:00,61.7,41.8,30.26,West,270,0.0,3.0,48,0.00,,,0.00,Wunderground v.1.13,2013-04-22 15:20:00,
2013-04-22 11:30:00,61.7,41.8,30.26,West,270,0.0,3.0,48,0.00,,,0.00,Wunderground v.1.13,2013-04-22 15:30:00,
2013-04-22 11:40:00,61.7,41.8,30.26,West,270,0.0,3.0,48,0.00,,,0.00,Wunderground v.1.13,2013-04-22 15:40:00,
2013-04-22 11:50:00,63.8,39.6,30.25,NE,45,0.0,3.0,41,0.00,,,0.00,Wunderground v.1.13,2013-04-22 15:50:00,
2013-04-22 12:00:00,63.8,39.6,30.25,NE,45,0.0,3.0,41,0.00,,,0.00,Wunderground v.1.13,2013-04-22 16:00:00,
2013-04-22 12:10:00,63.8,39.6,30.25,NE,45,0.0,3.0,41,0.00,,,0.00,Wunderground v.1.13,2013-04-22 16:10:00,
2013-04-22 12:20:00,65.5,40.5,30.23,WNW,293,0.0,3.0,40,0.00,,,0.00,Wunderground v.1.13,2013-04-22 16:20:00,
2013-04-22 12:30:00,65.5,40.5,30.23,WNW,293,0.0,3.0,40,0.00,,,0.00,Wunderground v.1.13,2013-04-22 16:30:00,
2013-04-22 12:40:00,65.5,40.5,30.23,WNW,293,0.0,3.0,40,0.00,,,0.00,Wunderground v.1.13,2013-04-22 16:40:00,
2013-04-22 12:50:00,66.7,39.6,30.22,West,270,1.0,4.0,37,0.00,,,0.00,Wunderground v.1.13,2013-04-22 16:50:00,
2013-04-22 13:00:00,66.7,39.6,30.22,West,270,1.0,4.0,37,0.00,,,0.00,Wunderground v.1.13,2013-04-22 17:00:00,
2013-04-22 13:10:00,66.7,39.6,30.22,West,270,1.0,4.0,37,0.00,,,0.00,Wunderground v.1.13,2013-04-22 17:10:00,
2013-04-22 13:20:00,68.2,41.6,30.21,WNW,293,1.0,4.0,38,0.00,,,0.00,Wunderground v.1.13,2013-04-22 17:20:00,
2013-04-22 13:30:00,68.2,41.6,30.21,WNW,293,1.0,4.0,38,0.00,,,0.00,Wunderground v.1.13,2013-04-22 17:30:00,
2013-04-22 13:40:00,68.2,41.6,30.21,WNW,293,1.0,4.0,38,0.00,,,0.00,Wunderground v.1.13,2013-04-22 17:40:00,
2013-04-22 13:50:00,69.3,39.7,30.19,WNW,293,0.0,3.0,34,0.00,,,0.00,Wunderground v.1.13,2013-04-22 17:50:00,
2013-04-22 14:00:00,69.3,39.7,30.19,WNW,293,0.0,3.0,34,0.00,,,0.00,Wunderground v.1.13,2013-04-22 18:00:00,
2013-04-22 14:10:00,69.3,39.7,30.19,WNW,293,0.0,3.0,34,0.00,,,0.00,Wunderground v.1.13,2013-04-22 18:10:00,
2013-04-22 14:20:00,69.5,38.3,30.18,WNW,293,1.0,4.0,32,0.00,,,0.00,Wunderground v.1.13,2013-04-22 18:20:00,
2013-04-22 14:30:00,69.5,38.3,30.18,WNW,293,1.0,4.0,32,0.00,,,0.00,Wunderground v.1.13,2013-04-22 18:30:00,
2013-04-22 14:40:00,69.5,38.3,30.18,WNW,293,1.0,4.0,32,0.00,,,0.00,Wunderground v.1.13,2013-04-22 18:40:00,
2013-04-22 14:50:00,70.8,37.0,30.16,NW,315,1.0,5.0,29,0.00,,,0.00,Wunderground v.1.13,2013-04-22 18:50:00,
2013-04-22 15:00:00,70.8,37.0,30.16,NW,315,1.0,5.0,29,0.00,,,0.00,Wunderground v.1.13,2013-04-22 19:00:00,
2013-04-22 15:10:00,70.8,37.0,30.16,NW,315,1.0,5.0,29,0.00,,,0.00,Wunderground v.1.13,2013-04-22 19:10:00,
2013-04-22 15:20:00,71.5,40.1,30.15,WNW,293,0.0,6.0,32,0.00,,,0.00,Wunderground v.1.13,2013-04-22 19:20:00,
2013-04-22 15:30:00,71.5,40.1,30.15,WNW,293,0.0,6.0,32,0.00,,,0.00,Wunderground v.1.13,2013-04-22 19:30:00,
2013-04-22 15:40:00,71.5,40.1,30.15,WNW,293,0.0,6.0,32,0.00,,,0.00,Wunderground v.1.13,2013-04-22 19:40:00,
2013-04-22 15:50:00,72.0,38.9,30.13,SE,135,0.0,7.0,30,0.00,,,0.00,Wunderground v.1.13,2013-04-22 19:50:00,
2013-04-22 16:00:00,72.0,38.9,30.13,SE,135,0.0,7.0,30,0.00,,,0.00,Wunderground v.1.13,2013-04-22 20:00:00,
2013-04-22 16:10:00,72.0,38.9,30.13,SE,135,0.0,7.0,30,0.00,,,0.00,Wunderground v.1.13,2013-04-22 20:10:00,
2013-04-22 16:20:00,71.9,37.0,30.12,NE,45,0.0,4.0,28,0.00,,,0.00,Wunderground v.1.13,2013-04-22 20:20:00,
2013-04-22 16:30:00,71.9,37.0,30.12,NE,45,0.0,4.0,28,0.00,,,0.00,Wunderground v.1.13,2013-04-22 20:30:00,
2013-04-22 16:40:00,71.9,37.0,30.12,NE,45,0.0,4.0,28,0.00,,,0.00,Wunderground v.1.13,2013-04-22 20:40:00,
2013-04-22 16:50:00,72.2,37.3,30.11,NW,315,0.0,4.0,28,0.00,,,0.00,Wunderground v.1.13,2013-04-22 20:50:00,
2013-04-22 17:00:00,72.2,37.3,30.11,NW,315,0.0,4.0,28,0.00,,,0.00,Wunderground v.1.13,2013-04-22 21:00:00,
2013-04-22 17:10:00,72.2,37.3,30.11,NW,315,0.0,4.0,28,0.00,,,0.00,Wunderground v.1.13,2013-04-22 21:10:00,
2013-04-22 17:20:00,71.7,38.6,30.10,NE,45,0.0,3.0,30,0.00,,,0.00,Wunderground v.1.13,2013-04-22 21:20:00,
2013-04-22 17:30:00,71.7,38.6,30.10,NE,45,0.0,3.0,30,0.00,,,0.00,Wunderground v.1.13,2013-04-22 21:30:00,
2013-04-22 17:40:00,71.7,38.6,30.10,NE,45,0.0,3.0,30,0.00,,,0.00,Wunderground v.1.13,2013-04-22 21:40:00,
2013-04-22 17:50:00,71.0,41.2,30.10,NNW,338,0.0,3.0,34,0.00,,,0.00,Wunderground v.1.13,2013-04-22 21:50:00,
2013-04-22 18:00:00,71.0,41.2,30.10,NNW,338,0.0,3.0,34,0.00,,,0.00,Wunderground v.1.13,2013-04-22 22:00:00,
2013-04-22 18:10:00,71.0,41.2,30.10,NNW,338,0.0,3.0,34,0.00,,,0.00,Wunderground v.1.13,2013-04-22 22:10:00,
2013-04-22 18:20:00,69.2,41.8,30.10,NE,45,0.0,2.0,37,0.00,,,0.00,Wunderground v.1.13,2013-04-22 22:20:00,
2013-04-22 18:30:00,69.2,41.8,30.10,NE,45,0.0,2.0,37,0.00,,,0.00,Wunderground v.1.13,2013-04-22 22:30:00,
2013-04-22 18:40:00,69.2,41.8,30.10,NE,45,0.0,2.0,37,0.00,,,0.00,Wunderground v.1.13,2013-04-22 22:40:00,
2013-04-22 18:50:00,67.7,39.0,30.10,NE,45,0.0,3.0,35,0.00,,,0.00,Wunderground v.1.13,2013-04-22 22:50:00,
2013-04-22 19:00:00,67.7,39.0,30.10,NE,45,0.0,3.0,35,0.00,,,0.00,Wunderground v.1.13,2013-04-22 23:00:00,
2013-04-22 19:10:00,67.7,39.0,30.10,NE,45,0.0,3.0,35,0.00,,,0.00,Wunderground v.1.13,2013-04-22 23:10:00,
2013-04-22 19:20:00,65.5,40.5,30.11,N/A,-737280,0.0,0.0,40,0.00,,,0.00,Wunderground v.1.13,2013-04-22 23:20:00,
2013-04-22 19:30:00,65.5,40.5,30.11,N/A,-737280,0.0,0.0,40,0.00,,,0.00,Wunderground v.1.13,2013-04-22 23:30:00,
2013-04-22 19:40:00,65.5,40.5,30.11,N/A,-737280,0.0,0.0,40,0.00,,,0.00,Wunderground v.1.13,2013-04-22 23:40:00,
2013-04-22 19:50:00,62.3,40.7,30.12,N/A,-737280,0.0,0.0,45,0.00,,,0.00,Wunderground v.1.13,2013-04-22 23:50:00,
2013-04-22 20:00:00,62.3,40.7,30.12,N/A,-737280,0.0,0.0,45,0.00,,,0.00,Wunderground v.1.13,2013-04-23 00:00:00,
2013-04-22 20:10:00,62.3,40.7,30.12,N/A,-737280,0.0,0.0,45,0.00,,,0.00,Wunderground v.1.13,2013-04-23 00:10:00,
2013-04-22 20:20:00,60.1,40.9,30.12,N/A,-737280,0.0,0.0,49,0.00,,,0.00,Wunderground v.1.13,2013-04-23 00:20:00,
2013-04-22 20:30:00,60.1,40.9,30.12,N/A,-737280,0.0,0.0,49,0.00,,,0.00,Wunderground v.1.13,2013-04-23 00:30:00,
2013-04-22 20:40:00,60.1,40.9,30.12,N/A,-737280,0.0,0.0,49,0.00,,,0.00,Wunderground v.1.13,2013-04-23 00:40:00,
2013-04-22 20:50:00,58.6,40.0,30.12,N/A,-737280,0.0,0.0,50,0.00,,,0.00,Wunderground v.1.13,2013-04-23 00:50:00,
2013-04-22 21:10:00,58.6,40.0,30.12,N/A,-737280,0.0,0.0,50,0.00,,,0.00,Wunderground v.1.13,2013-04-23 01:10:00,
2013-04-22 21:20:00,56.9,43.2,30.12,N/A,-737280,0.0,0.0,60,0.00,,,0.00,Wunderground v.1.13,2013-04-23 01:20:00,
2013-04-22 21:30:00,56.9,43.2,30.12,N/A,-737280,0.0,0.0,60,0.00,,,0.00,Wunderground v.1.13,2013-04-23 01:30:00,
2013-04-22 21:40:00,56.9,43.2,30.12,N/A,-737280,0.0,0.0,60,0.00,,,0.00,Wunderground v.1.13,2013-04-23 01:40:00,
2013-04-22 21:50:00,54.7,42.3,30.13,N/A,-737280,0.0,0.0,63,0.00,,,0.00,Wunderground v.1.13,2013-04-23 01:50:00,
2013-04-22 22:00:00,54.7,42.3,30.13,N/A,-737280,0.0,0.0,63,0.00,,,0.00,Wunderground v.1.13,2013-04-23 02:00:00,
2013-04-22 22:10:00,54.7,42.3,30.13,N/A,-737280,0.0,0.0,63,0.00,,,0.00,Wunderground v.1.13,2013-04-23 02:10:00,
2013-04-22 22:20:00,53.2,43.3,30.13,N/A,-737280,0.0,0.0,69,0.00,,,0.00,Wunderground v.1.13,2013-04-23 02:20:00,
2013-04-22 22:30:00,53.2,43.3,30.13,N/A,-737280,0.0,0.0,69,0.00,,,0.00,Wunderground v.1.13,2013-04-23 02:30:00,
2013-04-22 22:40:00,53.2,43.3,30.13,N/A,-737280,0.0,0.0,69,0.00,,,0.00,Wunderground v.1.13,2013-04-23 02:40:00,
2013-04-22 22:50:00,52.1,44.4,30.13,N/A,-737280,0.0,0.0,75,0.00,,,0.00,Wunderground v.1.13,2013-04-23 02:50:00,
2013-04-22 23:00:00,52.1,44.4,30.13,N/A,-737280,0.0,0.0,75,0.00,,,0.00,Wunderground v.1.13,2013-04-23 03:00:00,
2013-04-22 23:10:00,52.1,44.4,30.13,N/A,-737280,0.0,0.0,75,0.00,,,0.00,Wunderground v.1.13,2013-04-23 03:10:00,
2013-04-22 23:20:00,51.5,45.2,30.13,N/A,-737280,0.0,0.0,79,0.00,,,0.00,Wunderground v.1.13,2013-04-23 03:20:00,
2013-04-22 23:30:00,51.5,45.2,30.13,N/A,-737280,0.0,0.0,79,0.00,,,0.00,Wunderground v.1.13,2013-04-23 03:30:00,
2013-04-22 23:40:00,51.5,45.2,30.13,N/A,-737280,0.0,0.0,79,0.00,,,0.00,Wunderground v.1.13,2013-04-23 03:40:00,
2013-04-22 23:50:00,50.7,44.4,30.13,N/A,-737280,0.0,0.0,79,0.00,,,0.00,Wunderground v.1.13,2013-04-23 03:50:00,